Total_Precipitation_Accumulation
0.00 0.00 0.00 0.00 0.01 0.03 0.06 0.08 0.07 0.03 0.02 0.01 0.01 0.00 0.00 0.00 0.00 0.00 0.00 0.00 0.00 0.00 0.00 0.00 0.00 0.00 0.00 0.00 0.00 0.00 0.00 0.00 0.00 0.00 0.00 0.00 0.00 0.00 0.00 0.00 0.00 0.00 0.00 0.00 0.00 0.00 0.00
0.01 0.00 0.00 0.00 0.00 0.02 0.05 0.09 0.12 0.07 0.04 0.01 0.01 0.01 0.00 0.00 0.00 0.00 0.00 0.00 0.00 0.00 0.00 0.00 0.00 0.00 0.00 0.00 0.00 0.00 0.00 0.00 0.00 0.00 0.00 0.00 0.00 0.00 0.00 0.00 0.00 0.00 0.00 0.00 0.00 0.00 0.00
0.02 0.01 0.01 0.00 0.00 0.01 0.04 0.09 0.13 0.12 0.06 0.03 0.01 0.00 0.00 0.00 0.00 0.00 0.00 0.00 0.00 0.00 0.00 0.00 0.00 0.00 0.00 0.00 0.00 0.00 0.00 0.00 0.00 0.00 0.00 0.00 0.00 0.00 0.00 0.00 0.00 0.00 0.00 0.00 0.00 0.00 0.00
0.02 0.01 0.01 0.00 0.00 0.01 0.03 0.07 0.14 0.19 0.14 0.05 0.03 0.01 0.00 0.00 0.00 0.00 0.00 0.00 0.00 0.00 0.00 0.00 0.00 0.00 0.00 0.00 0.00 0.00 0.00 0.00 0.00 0.00 0.00 0.00 0.00 0.00 0.00 0.00 0.00 0.00 0.00 0.00 0.00 0.00 0.00
0.03 0.03 0.02 0.00 0.00 0.00 0.01 0.05 0.12 0.22 0.22 0.12 0.05 0.03 0.01 0.00 0.00 0.00 0.00 0.00 0.00 0.00 0.00 0.00 0.00 0.00 0.00 0.00 0.00 0.00 0.00 0.00 0.00 0.00 0.00 0.00 0.00 0.00 0.00 0.00 0.00 0.00 0.00 0.00 0.00 0.00 0.00
0.04 0.03 0.03 0.02 0.00 0.00 0.00 0.02 0.08 0.20 0.31 0.24 0.13 0.04 0.03 0.02 0.01 0.00 0.00 0.00 0.00 0.00 0.00 0.00 0.00 0.00 0.00 0.00 0.00 0.00 0.00 0.00 0.00 0.00 0.00 0.00 0.00 0.00 0.00 0.00 0.00 0.00 0.00 0.00 0.00 0.00 0.00
0.06 0.06 0.05 0.04 0.02 0.01 0.00 0.00 0.03 0.14 0.29 0.40 0.29 0.13 0.04 0.03 0.03 0.03 0.01 0.00 0.00 0.00 0.00 0.00 0.00 0.00 0.00 0.00 0.00 0.00 0.00 0.00 0.00 0.00 0.00 0.00 0.00 0.00 0.00 0.00 0.00 0.00 0.00 0.00 0.00 0.00 0.00
0.03 0.04 0.05 0.03 0.02 0.01 0.00 0.00 0.01 0.08 0.23 0.48 0.47 0.29 0.14 0.05 0.03 0.08 0.03 0.00 0.00 0.01 0.01 0.00 0.00 0.00 0.00 0.00 0.00 0.00 0.00 0.00 0.00 0.00 0.00 0.00 0.00 0.00 0.00 0.00 0.00 0.00 0.00 0.00 0.00 0.00 0.00
0.03 0.02 0.02 0.03 0.02 0.01 0.00 0.00 0.01 0.02 0.17 0.41 0.61 0.61 0.30 0.15 0.07 0.06 0.03 0.02 0.00 0.00 0.00 0.00 0.00 0.00 0.00 0.00 0.00 0.00 0.00 0.00 0.00 0.00 0.00 0.00 0.00 0.00 0.00 0.00 0.00 0.00 0.00 0.00 0.00 0.00 0.00
0.03 0.02 0.03 0.03 0.03 0.02 0.02 0.01 0.02 0.02 0.07 0.36 0.62 0.88 0.69 0.39 0.27 0.04 0.03 0.08 0.04 0.01 0.03 0.00 0.00 0.00 0.00 0.00 0.00 0.00 0.00 0.00 0.00 0.00 0.00 0.00 0.00 0.00 0.00 0.00 0.00 0.00 0.00 0.00 0.00 0.00 0.00
0.03 0.02 0.02 0.03 0.03 0.02 0.01 0.01 0.02 0.02 0.03 0.25 0.74 0.88 1.09 0.86 0.33 0.16 0.08 0.10 0.19 0.09 0.09 0.00 0.00 0.00 0.00 0.00 0.00 0.00 0.00 0.00 0.00 0.00 0.00 0.00 0.00 0.00 0.00 0.00 0.00 0.00 0.00 0.00 0.00 0.00 0.00
0.04 0.04 0.04 0.04 0.04 0.02 0.01 0.01 0.02 0.04 0.02 0.12 0.60 0.97 1.14 1.17 0.48 0.20 0.19 0.13 0.31 0.38 0.17 0.00 0.00 0.00 0.00 0.00 0.00 0.00 0.00 0.00 0.00 0.00 0.00 0.00 0.00 0.00 0.00 0.00 0.00 0.00 0.00 0.00 0.00 0.00 0.00
0.07 0.06 0.04 0.04 0.05 0.04 0.03 0.02 0.03 0.04 0.03 0.06 0.40 1.02 1.31 1.17 0.52 0.30 0.55 0.39 0.58 0.35 0.04 0.00 0.00 0.00 0.00 0.00 0.00 0.00 0.00 0.00 0.00 0.00 0.00 0.00 0.00 0.00 0.00 0.00 0.00 0.00 0.00 0.00 0.00 0.00 0.00
0.07 0.08 0.06 0.03 0.04 0.05 0.05 0.04 0.04 0.05 0.04 0.04 0.30 0.67 1.39 0.95 0.69 0.68 0.93 0.99 0.54 0.09 0.01 0.00 0.00 0.00 0.00 0.00 0.00 0.00 0.00 0.00 0.00 0.00 0.00 0.00 0.00 0.00 0.00 0.00 0.00 0.00 0.00 0.00 0.00 0.00 0.00
0.05 0.06 0.07 0.07 0.04 0.06 0.06 0.04 0.05 0.06 0.07 0.07 0.33 0.66 1.19 1.19 1.14 1.02 1.13 1.27 0.34 0.03 0.01 0.02 0.03 0.05 0.01 0.00 0.00 0.00 0.00 0.00 0.00 0.00 0.00 0.00 0.00 0.00 0.00 0.00 0.00 0.00 0.00 0.00 0.00 0.00 0.00
0.06 0.05 0.06 0.08 0.05 0.05 0.07 0.05 0.07 0.08 0.10 0.16 0.44 0.88 1.05 1.24 1.46 1.37 1.43 0.66 0.13 0.02 0.01 0.03 0.05 0.01 0.00 0.00 0.00 0.00 0.00 0.00 0.00 0.01 0.00 0.00 0.00 0.00 0.00 0.00 0.00 0.00 0.00 0.00 0.00 0.00 0.00
0.05 0.05 0.05 0.06 0.07 0.08 0.05 0.04 0.09 0.12 0.15 0.22 0.49 1.00 0.82 1.50 2.16 1.85 1.30 0.29 0.05 0.02 0.01 0.03 0.01 0.01 0.00 0.00 0.00 0.00 0.00 0.00 0.00 0.00 0.00 0.00 0.01 0.00 0.00 0.00 0.00 0.00 0.00 0.00 0.00 0.00 0.00
0.03 0.03 0.02 0.01 0.02 0.03 0.03 0.04 0.10 0.18 0.22 0.37 0.78 0.94 0.78 2.01 3.23 2.22 0.71 0.15 0.09 0.05 0.03 0.02 0.02 0.00 0.02 0.01 0.00 0.00 0.00 0.00 0.00 0.00 0.00 0.00 0.01 0.02 0.02 0.00 0.00 0.00 0.00 0.00 0.00 0.00 0.00
0.02 0.03 0.02 0.02 0.01 0.02 0.02 0.05 0.12 0.23 0.25 0.52 0.94 0.79 0.88 2.13 2.85 1.28 0.40 0.12 0.10 0.09 0.08 0.06 0.02 0.00 0.00 0.02 0.04 0.03 0.00 0.02 0.01 0.00 0.00 0.00 0.00 0.00 0.01 0.00 0.00 0.00 0.00 0.00 0.00 0.00 0.00
0.03 0.03 0.03 0.03 0.03 0.03 0.03 0.05 0.17 0.26 0.27 0.68 0.96 0.92 0.85 1.63 1.55 0.50 0.35 0.30 0.19 0.04 0.08 0.05 0.01 0.00 0.00 0.00 0.03 0.02 0.01 0.00 0.01 0.00 0.00 0.00 0.00 0.00 0.00 0.00 0.00 0.00 0.00 0.00 0.00 0.00 0.00
0.04 0.03 0.02 0.03 0.04 0.03 0.02 0.06 0.12 0.27 0.41 0.95 0.97 0.80 0.68 0.89 0.87 0.52 0.45 0.38 0.23 0.12 0.11 0.06 0.04 0.00 0.00 0.00 0.02 0.05 0.01 0.00 0.00 0.00 0.00 0.00 0.00 0.00 0.00 0.00 0.00 0.00 0.00 0.00 0.00 0.00 0.00
0.06 0.05 0.05 0.05 0.07 0.07 0.07 0.08 0.10 0.23 0.70 1.16 0.70 0.49 0.34 0.25 0.21 0.28 0.59 0.46 0.25 0.19 0.16 0.10 0.08 0.05 0.01 0.04 0.02 0.00 0.01 0.00 0.00 0.00 0.00 0.00 0.00 0.00 0.00 0.00 0.00 0.00 0.00 0.00 0.00 0.00 0.00
0.06 0.05 0.04 0.04 0.06 0.07 0.07 0.08 0.10 0.24 0.94 1.09 0.45 0.27 0.34 0.16 0.15 0.25 0.38 0.26 0.17 0.30 0.18 0.08 0.11 0.11 0.00 0.02 0.04 0.01 0.00 0.00 0.00 0.00 0.00 0.00 0.00 0.00 0.00 0.00 0.00 0.00 0.00 0.00 0.00 0.00 0.00
0.06 0.06 0.06 0.06 0.07 0.06 0.08 0.10 0.09 0.24 0.75 0.56 0.26 0.28 0.51 0.27 0.16 0.18 0.08 0.08 0.18 0.35 0.40 0.15 0.14 0.09 0.01 0.00 0.00 0.00 0.00 0.00 0.00 0.00 0.00 0.00 0.00 0.00 0.00 0.00 0.00 0.00 0.00 0.00 0.00 0.00 0.00
0.06 0.06 0.07 0.09 0.08 0.07 0.09 0.09 0.07 0.18 0.41 0.32 0.28 0.34 0.52 0.33 0.10 0.07 0.06 0.07 0.16 0.46 0.41 0.25 0.10 0.07 0.00 0.00 0.01 0.00 0.00 0.00 0.00 0.00 0.00 0.00 0.00 0.00 0.00 0.00 0.00 0.00 0.00 0.00 0.00 0.00 0.00
0.08 0.08 0.08 0.11 0.09 0.08 0.08 0.06 0.06 0.13 0.24 0.33 0.31 0.42 0.50 0.33 0.06 0.05 0.12 0.16 0.21 0.57 0.67 0.37 0.08 0.02 0.00 0.00 0.01 0.00 0.00 0.00 0.00 0.00 0.00 0.00 0.00 0.00 0.00 0.00 0.00 0.00 0.00 0.00 0.00 0.00 0.00
0.10 0.10 0.11 0.12 0.08 0.08 0.07 0.06 0.06 0.13 0.24 0.43 0.28 0.35 0.57 0.39 0.04 0.02 0.17 0.31 0.46 0.38 0.54 0.47 0.26 0.05 0.00 0.02 0.01 0.00 0.00 0.00 0.00 0.00 0.00 0.00 0.00 0.00 0.00 0.00 0.00 0.00 0.00 0.00 0.00 0.00 0.00
0.11 0.12 0.13 0.14 0.11 0.09 0.07 0.07 0.06 0.13 0.27 0.51 0.29 0.33 0.55 0.43 0.08 0.01 0.04 0.22 0.33 0.53 0.33 0.47 0.36 0.11 0.02 0.03 0.03 0.02 0.01 0.00 0.00 0.00 0.00 0.00 0.00 0.00 0.00 0.00 0.00 0.00 0.00 0.00 0.00 0.00 0.00
0.09 0.14 0.16 0.16 0.15 0.12 0.09 0.07 0.07 0.16 0.32 0.47 0.38 0.29 0.38 0.40 0.12 0.03 0.02 0.03 0.15 0.31 0.33 0.29 0.38 0.13 0.07 0.04 0.08 0.07 0.02 0.00 0.00 0.00 0.00 0.00 0.00 0.00 0.00 0.00 0.00 0.00 0.00 0.00 0.00 0.00 0.00